Weather in Atlanta

United States     33°06′52″N   94°10′05″W
temp.,
°C
wind,
m/s
gust,
m/s
humid.,
%
clouds,
%
prec.,
mm/h
press.,
hPa
HPBL,
m
25 may, wed
wed2501:00+19se21096100 0.0 1006455
04:00+18wsw139999 1.2 1006179
07:00+15ssw31198100 13.5 1009462
10:00+21sw477453 0.1 10091010
13:00+26sw595077 0.1 10091877
16:00+24wsw585216 0.0 10081742
19:00+20w486656 0.0 10101232
22:00+16wsw310696 0.0 1011788
26 may, thu
thu2601:00+15wsw4126686 0.0 1011570
04:00+13wsw31373100 0.0 1010452
07:00+15w51567100 0.0 1012939
10:00+21wnw6155122 0.0 10131129
13:00+25w613404 0.0 10121764
16:00+26w613410 0.0 10112353
19:00+23wnw411550 0.0 10121450
22:00+17wnw22750 0.0 101324
27 may, fri
fri2701:00+16nw24750 0.0 101471
04:00+13wnw23870 0.0 101461
07:00+14nw24890 0.0 1016109
10:00+22nw25550 0.0 1016636
13:00+27nw36380 0.0 10161296
16:00+29nw35360 0.0 10141386
19:00+26nne11640 0.0 101311
22:00+20s11690 0.0 101411
28 may, sat
sat2801:00+19e22700 0.0 101317
04:00+18sse24730 0.0 101287
07:00+18se25760 0.0 1014103
10:00+26sse36500 0.0 1013549
13:00+32ssw35400 0.0 10121358
16:00+33ssw46380 0.0 10091546
19:00+30s25580 0.0 100799
22:00+24s211660 0.0 1008208
29 may, sun
sun2901:00+24s415590 0.0 1008438
04:00+22ssw415675 0.0 1008476
07:00+20s314830 0.0 1010458
10:00+27ssw49525 0.0 1011759
13:00+33ssw47340 0.0 10101438
16:00+35s46280 0.0 10082003
19:00+31sse38470 0.0 1008302
22:00+25s312590 0.0 1010299